Location: Berbisdorf
(50.7638°N, 12.9442°E)
Time: 01:39:22
(UTC+00:00)

BREEZE-M DEB (TANK) - Pass Details

Date: 07 October 2020
Orbit: 333 x 12040 km, 49.7° (Epoch: 19 October)

Event Time Altitude Azimuth Distance (km) Brightness Sun altitude
Rises 23:29:50 0° 136° (SE) 15,743 9.2 -44.3°
Reaches altitude 10° 23:52:14 10° 125° (SE) 15,949 9.3 -43.3°
Maximum altitude 00:45:32 23° 94° (E) 13,469 9.2 -39.4°
Drops below altitude 10° 01:18:40 10° 61° (ENE) 10,615 9.3 -36.0°
Sets 01:27:26 0° 50° (NE) 10,087 9.5 -35.0°
